Location: Grieser Field
(39.7333°N, 81.7975°W)
Time: 18:26:06
(UTC-04:00)

MOS 1-B - Visible Passes

Search period start: 01 August 2014 00:00
Search period end: 11 August 2014 00:00
Orbit: 905 x 915 km, 99.1° (Epoch: 31 July)

Date Brightness Start Highest point End Pass type
(mag) Time Alt. Az. Time Alt. Az. Time Alt. Az.
01 Aug 5.1 03:22:28 10° NNE 03:28:00 45° E 03:29:36 37° SE visible
01 Aug 5.6 05:04:54 10° N 05:09:34 26° WNW 05:12:51 16° WSW visible
02 Aug 4.9 03:28:00 10° NNE 03:33:37 51° E 03:35:13 40° SE visible
02 Aug 5.7 05:10:40 10° NNW 05:15:07 24° WNW 05:18:29 14° WSW visible
03 Aug 4.7 03:33:33 10° NNE 03:39:15 57° E 03:40:50 43° SSE visible
03 Aug 5.8 05:16:27 10° NNW 05:20:39 21° WNW 05:24:06 13° WSW visible
04 Aug 4.6 03:39:07 10° NNE 03:44:52 63° ESE 03:46:27 46° SSE visible
04 Aug 5.9 05:22:15 10° NNW 05:26:11 19° WNW 05:29:42 11° WSW visible
05 Aug 4.4 03:44:42 10° NNE 03:50:29 71° ESE 03:52:04 48° S visible
05 Aug 6.0 05:28:05 10° NNW 05:31:43 17° WNW 05:35:19 10° W visible
06 Aug 4.3 03:50:17 10° NNE 03:56:05 79° ESE 03:57:41 50° S visible
06 Aug 6.1 05:33:58 10° NNW 05:37:14 16° WNW 05:40:31 10° W visible
07 Aug 6.7 02:17:49 10° ENE 02:19:05 11° E 02:20:02 10° E visible
07 Aug 4.3 03:55:53 10° NNE 04:01:42 87° ESE 04:03:17 51° S visible
07 Aug 6.2 05:39:54 10° NNW 05:42:45 14° WNW 05:45:37 10° W visible
08 Aug 6.6 02:22:29 10° ENE 02:24:46 12° E 02:25:38 12° E visible
08 Aug 4.2 04:01:29 10° NNE 04:07:18 85° WNW 04:08:54 50° SSW visible
08 Aug 6.3 05:45:56 10° NNW 05:48:16 13° WNW 05:50:37 10° W visible
09 Aug 6.5 02:27:31 10° ENE 02:30:27 14° E 02:31:15 14° E visible
09 Aug 4.3 04:07:06 10° N 04:12:53 76° WNW 04:14:31 49° SSW visible
09 Aug 6.3 05:52:08 10° NW 05:53:47 11° NW 05:55:25 10° WNW visible
10 Aug 6.4 02:32:41 10° NE 02:36:08 16° E 02:36:52 16° E visible
10 Aug 4.3 04:12:44 10° N 04:18:29 69° WNW 04:20:07 47° SW visible
